Regional Weather Roundup
Issued by NWS

Home | Current Version | Previous Version | Graphics & Text | Print | Product List | Glossary On
Versions: 1 2 3 4 5 6 7 8 9 10 11 12 13 14 15 16 17 18 19 20 21 22 23 24 25 26 27 28 29 30 31 32 33 34 35 36 37 38 39 40 41 42 43 44 45 46 47 48 49 50
000
ASUS43 KFSD 310010
RWRSD

WEATHER ROUNDUP FOR SOUTH DAKOTA
NATIONAL WEATHER SERVICE SIOUX FALLS SD
700 PM CDT MON MAY 30 2016

NOTE: "FAIR" INDICATES FEW OR NO CLOUDS BELOW 12,000 FEET WITH NO
SIGNIFICANT WEATHER AND/OR OBSTRUCTIONS TO VISIBILITY.


SDZ001>005-009-010-012>017-310100-
NORTHWEST AND NORTH CENTRAL SOUTH DAKOTA

CITY           SKY/WX    TMP DP  RH WIND       PRES   REMARKS
BUFFALO          N/A     59  45  59 NW33G45   29.86R
FAITH            N/A     61  54  77 NW18G28   29.83F
MOBRIDGE       TSTM      59  55  87 VRB7      29.71F
$$

SDZ012>016-024>037-041>051-057-063-072>074-310100-
SOUTHWEST AND SOUTH CENTRAL SOUTH DAKOTA

CITY           SKY/WX    TMP DP  RH WIND       PRES   REMARKS
RAPID CTY ARPT CLOUDY    69  46  43 N26G36    29.87R
PIERRE         CLOUDY    70  55  59 W24G32    29.74R
CUSTER         CLOUDY    65  30  27 W12G22    29.96R
ELLSWORTH AFB  CLOUDY    69  49  48 NW23G31   29.88R
PHILIP         MOSUNNY   65  53  65 NW20G30   29.80R
PINE RIDGE     CLOUDY    70  50  49 N16       29.86R
WINNER         FAIR      79  44  28 S21G33    29.71F
$$

SDZ004>011-016>023-039-040-310100-
NORTHEAST SOUTH DAKOTA

CITY           SKY/WX    TMP DP  RH WIND       PRES   REMARKS
ABERDEEN       CLOUDY    80  58  46 S10       29.74F
WATERTOWN      SUNNY     79  56  45 S13       29.78F
BROOKINGS      SUNNY     80  54  40 S14       29.78F
SISSETON         N/A     84  52  33 S17       29.74F
$$

SDZ017-020-022-023-036>040-048>070-310100-
SOUTHEAST SOUTH DAKOTA

CITY           SKY/WX    TMP DP  RH WIND       PRES   REMARKS
SIOUX FALLS    MOSUNNY   80  56  43 SE12      29.77F
HURON          CLOUDY    80  60  50 S9        29.74S
CHAMBERLAIN    CLOUDY    76  67  75 SE10      29.71F
MITCHELL       CLOUDY    80  62  54 S7        29.75F
YANKTON        SUNNY     84  54  34 S14       29.75S
$$

ABBREVIATIONS USED IN REMARKS
   TC - TEMPERATURE IN CELSIUS
  WCI - WIND CHILL INDEX
   HX - HEAT INDEX
  VSB - VISIBILITY





USA.gov is the U.S. government's official web portal to all federal, state and local government web resources and services.